sat.trackr.live / text

‹ back to catalog

GSAT0215 (GALILEO 19)

NORAD 43055 · 2017-079A

PAYLOAD ACTIVE UNKNOWN

§ Identity

Operator
Country
ESA
Launch date
2017-12-12
Launch site
FRGUI
Launch vehicle
Mass (kg)
RCS (m²)

Purposes: earth_obs, nav

External: N2YO · Heavens-Above · Gunter

§ Orbital elements

Epoch: 2026-09-10T01:40:28.763904Z

Period
844.70 min
Inclination
55.0545°
Eccentricity
0.0003379
Mean motion
1.70473858 rev/d
Perigee alt
23,212.2 km
Apogee alt
23,232.2 km
Semi-major
29,600.3 km
B*
0.0000e+0
RAAN
219.1717°
Arg perigee
280.8591°
Mean anomaly
79.0513°
Rev number
5,443

§ Raw data

GSAT0215 (GALILEO 19)1 43055U 17079A   26253.06977736 -.00000002  00000+0  00000+0 0  99952 43055  55.0545 219.1717 0003379 280.8591  79.0513  1.70473858 54430

JSON: /api/v1/satellites/43055 · /tle

For live sub-satellite position, see the globe view (requires WebGL).

§ Visibility from observer

Set your observer location to see the next 7 days of passes ≥ 10°. The values pass through the URL so the page stays shareable.

No JS? Fill the form by hand. The geolocation button needs JavaScript.